Regional Weather Roundup
Issued by NWS Jackson, KY

Home | Current Version | Previous Version | Graphics & Text | Print | Product List | Glossary On
Versions: 1 2 3 4 5 6 7 8 9 10 11 12 13 14 15 16 17 18 19 20 21 22 23 24 25 26 27 28
000
ASUS43 KJKL 302210
RWRJKL

EAST KENTUCKY HOURLY WEATHER ROUNDUP
NATIONAL WEATHER SERVICE JACKSON KY
600 PM EDT SUN APR 30 2017

NOTE: "FAIR" INDICATES FEW OR NO CLOUDS BELOW 12,000 FEET WITH
NO SIGNIFICANT WEATHER AND/OR OBSTRUCTIONS TO VISIBILITY.

* THESE REPORTS ARE NOT UNDER NWS QUALITY CONTROL AND MAY NOT
  REPORT WEATHER SUCH AS PRECIPITATION AND FOG.

KYZ079-080-083-085-087-088-110-112-115-119-120-302300
...EASTERN KENTUCKY...

CITY           SKY/WX    TMP DP  RH WIND       PRES   REMARKS
JACKSON        CLOUDY    83  58  42 VRB3      29.92F
LONDON         MOSUNNY   82  56  40 S17G28    29.93S
SOMERSET*      PTSUNNY   81  57  44 S14G23    29.92S
MONTICELLO*    MOSUNNY   80  62  54 S12G29    29.91F
WILLIAMSBURG*  PTCLDY    81  59  47 S14G24    29.95R
MIDDLESBORO*   MOSUNNY   83  58  42 S6G18     29.96S
HARLAN APT*    CLOUDY    81  52  36 SE5       29.97S
PIKE CO APT*     N/A     82  56  39 S5        29.96R
BIG SANDY APT* PTCLDY    86  57  37 S10       29.93F
MOREHEAD APT*  CLOUDY    84  57  39 S13G20    29.90F
$$

KYZ035-036-041-042-044-050-067-078-099-302300
...CENTRAL KENTUCKY...

CITY           SKY/WX    TMP DP  RH WIND       PRES   REMARKS
MT STERLING*   CLOUDY    82  59  44 SW18      29.89F
FLEMING/MASON* CLOUDY    82  60  47 S14G23    29.88S
DANVILLE*      CLOUDY    79  61  53 S15G24    29.89S
LEXINGTON      PTSUNNY   82  59  45 S17G33    29.87S
FRANKFORT      PTSUNNY   82  60  47 S17G29    29.83S
LOUISVILLE     CLOUDY    83  63  50 S20G35    29.77F
LEBANON*         N/A     81  63  54 S17G23    29.84F
GLASGOW*       LGT RAIN  69  67  93 SW13G20   29.86R
BOWLING GREEN  LGT RAIN  70  66  87 S15G24    29.82F
$$

KYZ091>093-OHZ055-061-077-WVZ005-015-034-035-042-302300
...SOUTHERN OHIO/WEST VIRGINIA...

CITY           SKY/WX    TMP DP  RH WIND       PRES   REMARKS
COVINGTON      CLOUDY    81  64  56 S17       29.81F
COLUMBUS       CLOUDY    82  65  56 S17G25    29.84F
DAYTON         LGT RAIN  79  62  56 S20G31    29.82S
WILMINGTON     CLOUDY    79  64  60 S16G25    29.83F
HUNTINGTON     CLOUDY    85  60  42 S9        29.88F
CHARLESTON     MOSUNNY   88  64  44 CALM      29.91F
PINEVILLE*     SUNNY     86  50  28 MISG      30.03F
BECKLEY        SUNNY     79  52  38 S15       30.05S
BLUEFIELD      MOSUNNY   75  50  41 S13G26    30.10S
LOGAN CO APT*    N/A     84  52  32 SW8G14    29.96F
$$

VAZ002-007-008-TNZ017-027-036-066-071-302300
...SOUTHWEST VIRGINIA/EAST TENNESSEE...

CITY           SKY/WX    TMP DP  RH WIND       PRES   REMARKS
WISE*          CLOUDY    77  50  38 S14G23    30.06S
JONESVILLE*      N/A     82  55  39 S8G16     30.00S
ABINGDON*      MOSUNNY   81  52  36 SW9G21    30.05F
BRISTOL        CLOUDY    82  55  39 S10G21    30.01F
MORRISTOWN*    CLEAR     81  57  44 SW7       29.98R
SEVIERVILLE*   CLEAR     82  54  36 SW12      29.97R
KNOXVILLE      CLOUDY    83  54  36 S17G25    29.96S
LAFOLLETTE*    CLEAR     81  59  47 SW8G17    29.99S
OAK RIDGE      CLOUDY    83  56  39 VRB7      29.98S
CROSSVILLE     CLOUDY    75  60  59 S13G25    29.97F
NASHVILLE      CLOUDY    68  65  90 S18       29.81F
$$

...KEY TO REMARKS...
VSB - VISIBILITY IN MILES
WCI - WIND CHILL INDEX
HX  - HEAT INDEX

$$




USA.gov is the U.S. government's official web portal to all federal, state and local government web resources and services.